Location: Cabrera Baja
(40.4089°N, 4.3354°W)
Time: 03:17:23
(UTC+00:00)

Lacrosse 5 - Pass Details

Date: 14 July 2020
Orbit: 717 x 720 km, 57.0° (Epoch: 02 August)

Event Time Altitude Azimuth Distance (km) Brightness Sun altitude
Exits shadow 00:10:41 63° 41° (NE) 802 2.1 -27.9°
Drops below altitude 10° 00:14:56 10° 44° (NE) 2,205 4.9 -27.9°
Sets 00:17:19 0° 45° (NE) 3,128 5.8 -27.9°
